Tracking 28799 objects as of 18-Apr-2024
HD Live streaming from Space Station
objects crossing your sky now

FENGYUN 1C DEB

Track FENGYUN 1C DEB now!
10-day predictions


NORAD ID: 30390
Int'l Code: 1999-025ADD
Perigee: 773.0 km
Apogee: 885.7 km
Inclination: 98.9 °
Period: 101.3 minutes
Semi major axis: 7200 km
RCS: 0.041 m2 (small)
Launch date: May 10, 1999
Source: People's Republic of China (PRC)
Launch site: Taiyaun Space Center, China (TSC)

Note: This is SATELLITE DEBRIS
Your satellite tracking list
Your tracking list is empty




NASA's NSSDC Master Catalog

Two Line Element Set (TLE):
1 30390U 99025ADD 24108.75890705  .00010330  00000-0  46403-2 0  9992
2 30390  98.8518 181.0251 0078233 115.2219   5.7057 14.20926385887779
Source of the keplerian elements: AFSPC